• în Republica Moldova
  • Lista ţărilor
  • Pe 7 zile
  • Temperatura apei
  • Hartă satelitară
  • Meteo pe hartă
  • Widget-uri
  • user-avatar
    Intrare

    Meteo pe oră la Igls

    Astăzi, 21 Iulie, Sâmbătă

    Timp Temperatura Precipitaţii Vânt Presiune Umiditate
    00:00 +16°C° 0,5 mm 1 m/s 684 mmHg 92%
    01:00 +16°C° 0 mm 2 m/s 683 mmHg 91%
    02:00 +16°C° 0,7 mm 1 m/s 683 mmHg 92%
    03:00 +16°C° 0,7 mm 1 m/s 683 mmHg 93%
    04:00 +16°C° 0,7 mm 1 m/s 683 mmHg 94%
    05:00 +16°C° 0,8 mm 1 m/s 683 mmHg 94%
    06:00 +16°C° 0,8 mm 1 m/s 683 mmHg 94%
    07:00 +18°C° 0 mm 1 m/s 683 mmHg 94%
    08:00 +18°C° 0,6 mm 1 m/s 683 mmHg 91%
    09:00 +19°C° 0,6 mm 1 m/s 683 mmHg 87%
    10:00 +20°C° 0,6 mm 1 m/s 683 mmHg 84%
    11:00 +20°C° 0,9 mm 1 m/s 683 mmHg 83%
    12:00 +20°C° 0,9 mm 1 m/s 683 mmHg 82%
    13:00 +21°C° 0,9 mm 1 m/s 683 mmHg 81%
    14:00 +21°C° 0,9 mm 1 m/s 683 mmHg 79%
    15:00 +21°C° 0,9 mm 1 m/s 683 mmHg 78%
    16:00 +21°C° 0,9 mm 1 m/s 683 mmHg 76%
    17:00 +21°C° 0,8 mm 1 m/s 683 mmHg 81%
    18:00 +20°C° 0,8 mm 1 m/s 683 mmHg 85%
    19:00 +19°C° 0,8 mm 1 m/s 683 mmHg 89%
    20:00 +18°C° 0,4 mm 1 m/s 683 mmHg 91%
    21:00 +16°C° 0,4 mm 1 m/s 683 mmHg 93%
    22:00 +15°C° 0,4 mm 1 m/s 683 mmHg 95%
    23:00 +15°C° 0,2 mm 1 m/s 683 mmHg 96%

    Mâine, 22 Iulie, Duminică

    Timp Temperatura Precipitaţii Vânt Presiune Umiditate
    00:00 +15°C° 0,2 mm 1 m/s 683 mmHg 96%
    01:00 +15°C° 0,2 mm 1 m/s 683 mmHg 96%
    02:00 +15°C° 0,3 mm 1 m/s 683 mmHg 96%
    03:00 +15°C° 0,3 mm 1 m/s 683 mmHg 96%
    04:00 +15°C° 0,3 mm 1 m/s 683 mmHg 96%
    05:00 +15°C° 0,4 mm 1 m/s 683 mmHg 95%
    06:00 +15°C° 0,4 mm 1 m/s 683 mmHg 94%
    07:00 +16°C° 0,4 mm 1 m/s 683 mmHg 93%
    08:00 +16°C° 0,4 mm 1 m/s 683 mmHg 91%
    09:00 +18°C° 0,4 mm 1 m/s 683 mmHg 88%
    10:00 +19°C° 0,4 mm 1 m/s 683 mmHg 86%
    11:00 +19°C° 0,4 mm 1 m/s 683 mmHg 83%
    12:00 +19°C° 0,4 mm 2 m/s 683 mmHg 81%
    13:00 +20°C° 0,4 mm 2 m/s 683 mmHg 78%
    14:00 +21°C° 0,5 mm 2 m/s 683 mmHg 77%
    15:00 +21°C° 0,5 mm 2 m/s 683 mmHg 75%
    16:00 +23°C° 0,5 mm 2 m/s 683 mmHg 74%
    17:00 +21°C° 0,7 mm 2 m/s 683 mmHg 79%
    18:00 +21°C° 0,7 mm 1 m/s 683 mmHg 84%
    19:00 +20°C° 0,7 mm 1 m/s 683 mmHg 90%
    20:00 +19°C° 0,3 mm 1 m/s 683 mmHg 92%
    21:00 +18°C° 0,3 mm 1 m/s 683 mmHg 94%
    22:00 +16°C° 0,3 mm 1 m/s 683 mmHg 96%
    23:00 +16°C° 0,1 mm 1 m/s 683 mmHg 96%

    Poimâine, 23 Iulie, Luni

    Timp Temperatura Precipitaţii Vânt Presiune Umiditate
    00:00 +16°C° 0,1 mm 1 m/s 683 mmHg 96%
    01:00 +15°C° 0,1 mm 1 m/s 683 mmHg 96%
    02:00 +15°C° 0,1 mm 2 m/s 683 mmHg 97%
    03:00 +15°C° 0,1 mm 2 m/s 683 mmHg 97%
    04:00 +15°C° 0,1 mm 2 m/s 683 mmHg 97%
    05:00 +15°C° 0 mm 2 m/s 683 mmHg 96%
    06:00 +16°C° 0 mm 2 m/s 684 mmHg 94%
    07:00 +17°C° 0 mm 2 m/s 684 mmHg 93%
    08:00 +18°C° 0,1 mm 2 m/s 684 mmHg 88%
    09:00 +19°C° 0,1 mm 2 m/s 684 mmHg 84%
    10:00 +19°C° 0,1 mm 2 m/s 685 mmHg 79%
    11:00 +20°C° 0,2 mm 2 m/s 685 mmHg 75%
    12:00 +21°C° 0,2 mm 2 m/s 685 mmHg 71%
    13:00 +23°C° 0,2 mm 2 m/s 685 mmHg 67%
    14:00 +23°C° 0,2 mm 2 m/s 685 mmHg 66%
    15:00 +24°C° 0,2 mm 2 m/s 685 mmHg 65%
    16:00 +24°C° 0,2 mm 2 m/s 685 mmHg 64%
    17:00 +23°C° 0,1 mm 2 m/s 685 mmHg 70%
    18:00 +21°C° 0,1 mm 2 m/s 685 mmHg 75%
    19:00 +20°C° 0,1 mm 2 m/s 685 mmHg 81%
    20:00 +19°C° 0 mm 2 m/s 685 mmHg 85%
    21:00 +17°C° 0 mm 2 m/s 685 mmHg 90%
    22:00 +16°C° 0 mm 1 m/s 686 mmHg 94%
    23:00 +15°C° 0 mm 1 m/s 685 mmHg 94%

    24 Iulie, Marţi

    Timp Temperatura Precipitaţii Vânt Presiune Umiditate
    00:00 +14°C° 0 mm 1 m/s 685 mmHg 94%
    01:00 +14°C° 0 mm 1 m/s 685 mmHg 94%
    02:00 +14°C° 0 mm 1 m/s 685 mmHg 93%
    03:00 +13°C° 0 mm 1 m/s 684 mmHg 92%
    04:00 +13°C° 0 mm 1 m/s 684 mmHg 91%
    05:00 +15°C° 0 mm 1 m/s 685 mmHg 84%
    06:00 +18°C° 0 mm 1 m/s 685 mmHg 78%
    07:00 +18°C° 0 mm 0 m/s 685 mmHg 72%
    08:00 +20°C° 0 mm 0 m/s 685 mmHg 63%
    09:00 +24°C° 0 mm 1 m/s 686 mmHg 55%
    10:00 +26°C° 0 mm 1 m/s 686 mmHg 46%
    11:00 +27°C° 0 mm 1 m/s 686 mmHg 45%
    12:00 +28°C° 0 mm 1 m/s 686 mmHg 43%
    13:00 +29°C° 0 mm 2 m/s 685 mmHg 42%
    14:00 +28°C° 0 mm 2 m/s 685 mmHg 45%
    15:00 +28°C° 0 mm 2 m/s 685 mmHg 48%
    16:00 +28°C° 0 mm 2 m/s 685 mmHg 51%
    17:00 +26°C° 0,2 mm 2 m/s 684 mmHg 61%
    18:00 +25°C° 0,2 mm 2 m/s 684 mmHg 71%
    19:00 +23°C° 0,2 mm 2 m/s 684 mmHg 81%
    20:00 +22°C° 0,3 mm 1 m/s 684 mmHg 86%
    21:00 +20°C° 0,3 mm 1 m/s 684 mmHg 91%
    22:00 +18°C° 0,3 mm 1 m/s 684 mmHg 96%
    23:00 +18°C° 0 mm 1 m/s 684 mmHg 96%

    25 Iulie, Miercuri

    Timp Temperatura Precipitaţii Vânt Presiune Umiditate
    00:00 +18°C° 0 mm 1 m/s 684 mmHg 97%
    01:00 +18°C° 0 mm 1 m/s 684 mmHg 97%
    02:00 +18°C° 0 mm 1 m/s 684 mmHg 97%
    03:00 +16°C° 0 mm 1 m/s 684 mmHg 97%
    04:00 +16°C° 0 mm 1 m/s 684 mmHg 96%
    05:00 +18°C° 0 mm 1 m/s 684 mmHg 93%
    06:00 +19°C° 0 mm 1 m/s 685 mmHg 90%
    07:00 +20°C° 0 mm 1 m/s 685 mmHg 87%
    08:00 +22°C° 0 mm 1 m/s 685 mmHg 76%
    09:00 +24°C° 0 mm 1 m/s 686 mmHg 66%
    10:00 +26°C° 0 mm 2 m/s 686 mmHg 55%
    11:00 +27°C° 0,1 mm 2 m/s 686 mmHg 53%
    12:00 +27°C° 0,1 mm 2 m/s 686 mmHg 50%
    13:00 +28°C° 0,1 mm 2 m/s 685 mmHg 48%
    14:00 +28°C° 0,4 mm 2 m/s 685 mmHg 53%
    15:00 +27°C° 0,4 mm 2 m/s 685 mmHg 58%
    16:00 +27°C° 0,4 mm 3 m/s 685 mmHg 63%
    17:00 +25°C° 0,7 mm 2 m/s 685 mmHg 70%
    18:00 +24°C° 0,7 mm 2 m/s 685 mmHg 77%
    19:00 +23°C° 0,7 mm 2 m/s 685 mmHg 84%
    20:00 +20°C° 0,1 mm 2 m/s 685 mmHg 88%
    21:00 +20°C° 0,1 mm 1 m/s 685 mmHg 92%
    22:00 +19°C° 0,1 mm 1 m/s 685 mmHg 95%
    23:00 +18°C° 0 mm 1 m/s 685 mmHg 95%

    26 Iulie, Joi

    Timp Temperatura Precipitaţii Vânt Presiune Umiditate
    00:00 +18°C° 0 mm 1 m/s 685 mmHg 95%
    01:00 +16°C° 0 mm 1 m/s 685 mmHg 96%
    02:00 +16°C° 0 mm 1 m/s 685 mmHg 95%
    03:00 +15°C° 0 mm 1 m/s 685 mmHg 94%
    04:00 +15°C° 0 mm 1 m/s 685 mmHg 94%
    05:00 +16°C° 0 mm 1 m/s 685 mmHg 89%
    06:00 +19°C° 0 mm 1 m/s 685 mmHg 84%
    07:00 +20°C° 0 mm 1 m/s 686 mmHg 79%
    08:00 +22°C° 0 mm 1 m/s 686 mmHg 70%
    09:00 +24°C° 0 mm 1 m/s 686 mmHg 61%
    10:00 +26°C° 0 mm 1 m/s 687 mmHg 52%
    11:00 +27°C° 0 mm 2 m/s 686 mmHg 49%
    12:00 +28°C° 0 mm 2 m/s 686 mmHg 46%
    13:00 +28°C° 0 mm 2 m/s 686 mmHg 44%
    14:00 +28°C° 0 mm 2 m/s 686 mmHg 46%
    15:00 +28°C° 0 mm 3 m/s 686 mmHg 49%
    16:00 +28°C° 0 mm 3 m/s 686 mmHg 51%
    17:00 +26°C° 0,2 mm 2 m/s 686 mmHg 60%
    18:00 +25°C° 0,2 mm 2 m/s 686 mmHg 69%
    19:00 +23°C° 0,2 mm 2 m/s 686 mmHg 78%
    20:00 +22°C° 0 mm 1 m/s 686 mmHg 84%
    21:00 +20°C° 0 mm 1 m/s 686 mmHg 89%
    22:00 +18°C° 0 mm 1 m/s 686 mmHg 95%
    23:00 +18°C° 0 mm 1 m/s 685 mmHg 95%
    Arată mai mult